PEGASUS DEB, 24581

Orbit data source: Space-Track

PEGASUS DEB, 24581 is space debris in LEO originally from a launch on Thu, 19 May 1994 UTC launched from the Air Force Western Test Range (AFWTR). Debris objects in space refer to the collection of defunct objects orbiting the Earth. Examples of debris include non-operational satellites, rocket bodies, and fragments generated from explosions, collisions, or faulty payload assembly.

Loading next visibility...
Identifier
24581, 1994-029YH
Orbit
LEO
Country
Flag of USUS
Related business
Manufacturer
Unknown
Mission
Spacecraft
Bus & Motor
Unknown
Mass
Unknown
Launch date (UTC)
1994-05-19 (32 years ago)
Launch vehicle
Unknown
Launch site
Air Force Western Test Range (AFWTR)
Object type
Payload
Rocket body
Debris
Shape & HBR
Unknown shape, 0.1 m
Radar Cross Section
Medium (>0.1 m² and <1 m²)

Expand to show TLE details & history
Last TLE update: 3 days ago

TLE from 3 days ago
0 PEGASUS DEB
1 24581U 94029YH  26171.32765608  .00002222  00000-0  80547-3 0  9993
2 24581  81.5450  10.7738 0728989  24.1967 151.9278 13.40291628436320
Epoch: 2026-06-20T07:51Z
TLE epoch observation values (Epoch: 2026-06-20T07:51:49.485Z)
Latitude
0.12886°
Longitude
164.25468°
Altitude
1,600.679 km
Speed
6.834 km/s
True Right ascension
12h 43m 01s
True Declination
0° 07' 41"
Sunlit
Object was in daylight at epoch
Visualization orbit readout
Latitude
Unknown
Longitude
Unknown
Altitude
Unknown
Speed
Unknown
Apparent Right ascension
Unknown
Apparent Declination
Unknown
Sunlit
N/A
Visualization observer readout
Local Sidereal Time
07:09:45
Azimuth
Unknown
Elevation
Unknown
Doppler factor
Unknown
Orbital elements
Apogee altitude
1,650.969 km
Perigee altitude
559.882 km
Semi-major axis
7,483.563 km
Eccentricity
0.0729
Inclination
81.545°
RAAN
10.7738°
Arg. of periapsis
24.1967°
True anomaly
155.56313°
Mean anomaly
151.9278°
Eccentric anomaly
153.77361°
Mean motion
3.35259 °/min
Orbital period
107.38 mins
BSTAR
0.00080547
Loading maneuver chart data...
Computing Atmospheric mass density...

Documentation

Showing up to 5 results
|